GFSGL_2pvu_pres_132.txt.gz
Presure
242 225 207 225 182 205 194 200 212 217 205 216 232 205 216 204 195 189 192 173 176 184 178 172 187 188 169 179 175 178 173 191 194 196 203 207 226 212 242 226 220 204 213
250 239 222 242 220 191 237 200 207 216 205 213 218 223 224 212 195 198 191 192 172 168 179 186 177 183 176 176 168 188 185 193 194 198 209 200 213 212 212 242 233 211 209
237 255 260 215 220 226 213 206 239 210 210 223 223 212 229 216 230 209 190 188 195 179 188 191 194 192 198 186 197 178 187 199 194 200 208 197 212 206 220 219 250 221 207
240 234 232 231 245 241 230 222 202 210 213 224 244 234 207 227 226 198 204 184 190 196 187 180 179 195 177 189 176 189 183 198 200 198 198 198 198 203 213 220 235 254 216
254 243 250 233 231 252 246 187 185 210 204 191 221 217 243 249 250 223 197 201 196 185 180 198 196 188 193 189 210 198 178 195 208 200 202 203 191 214 200 207 228 250 224
278 253 248 242 231 237 240 247 263 229 247 218 236 220 203 215 238 234 233 214 199 202 204 185 197 209 195 214 211 196 208 207 204 205 196 211 201 201 208 215 230 228 248
248 222 257 245 251 254 244 242 237 237 206 208 214 214 221 219 227 218 234 216 222 213 204 197 202 213 213 215 204 206 209 207 209 215 207 207 195 209 214 207 219 234 240
213 223 231 233 226 225 234 233 204 224 215 231 222 235 243 225 244 237 239 247 231 231 228 221 209 216 205 204 214 216 207 209 213 216 216 203 205 210 199 206 212 234 234
223 216 220 232 236 229 232 236 235 225 239 257 258 255 222 244 251 252 255 249 251 250 249 247 233 231 226 220 210 217 215 243 229 213 217 206 200 213 209 201 211 227 216
245 230 230 225 217 233 235 226 229 231 240 220 253 235 249 213 239 241 270 274 270 268 263 248 238 238 240 238 236 219 237 223 213 223 214 205 204 213 203 182 210 224 226
224 236 218 225 233 247 220 219 215 228 247 247 254 263 257 260 249 266 266 277 316 311 288 278 261 263 238 227 226 233 222 221 215 216 210 206 209 207 176 209 212 216 243
238 241 248 252 243 249 223 230 241 248 231 255 265 254 262 254 256 261 255 262 268 286 272 264 266 263 244 239 225 220 217 212 216 205 204 212 219 206 208 209 218 237 235
248 240 240 249 257 253 255 247 252 245 241 260 260 259 255 243 250 250 253 254 251 262 290 239 255 250 243 229 226 220 221 215 213 209 221 219 226 223 225 217 226 226 229
250 247 243 238 238 238 240 241 244 233 235 244 241 240 251 243 243 239 244 251 248 252 267 242 242 229 245 228 218 216 209 218 223 213 206 216 223 220 223 220 229 227 231
258 232 241 260 262 243 247 252 247 257 250 248 249 249 259 245 245 231 234 237 240 242 248 261 255 229 225 219 222 221 214 220 215 206 217 216 218 229 225 225 255 238 238
237 242 242 252 256 253 246 264 256 258 261 260 246 262 241 255 231 236 236 234 246 244 233 232 249 245 229 223 223 222 215 216 221 215 218 221 227 221 221 258 240 231 203
275 228 238 258 260 254 274 255 256 252 266 265 267 267 253 277 256 264 265 251 245 236 238 241 233 243 230 216 222 233 231 222 221 220 223 217 229 232 262 234 220 205 214
261 261 260 261 267 251 257 252 251 272 263 283 265 292 296 310 305 279 267 262 263 244 232 236 234 225 229 223 225 224 224 219 223 218 220 224 239 260 208 205 212 217 208
281 277 312 260 263 271 277 289 276 285 291 273 294 306 345 366 346 297 295 260 281 264 244 229 237 229 220 217 225 225 222 216 225 224 230 228 236 221 229 221 245 240 229
315 315 348 340 332 301 308 291 296 299 308 293 293 353 339 348 340 299 266 284 257 265 253 244 239 234 233 227 225 224 227 227 231 231 225 223 241 207 205 234 238 228 236
292 336 354 347 348 339 334 334 329 332 333 341 324 325 326 326 329 281 281 294 313 271 252 241 238 237 230 235 234 232 235 235 229 220 234 205 233 214 229 226 225 225 233
313 297 347 345 344 335 327 322 321 325 326 314 321 318 315 314 312 306 281 281 291 320 309 257 241 239 240 237 234 220 224 227 228 215 214 214 232 216 217 233 223 235 238
317 303 300 304 335 337 337 320 322 321 315 314 321 311 307 309 320 309 296 269 306 304 298 282 243 240 234 232 229 226 234 218 225 218 216 216 216 224 215 225 227 227 230
336 327 308 303 301 304 337 333 331 337 316 315 327 315 312 313 302 323 292 280 269 302 287 292 269 232 239 240 238 232 230 232 225 223 230 227 226 243 222 233 243 233 233
422 416 342 329 319 307 303 298 331 338 331 319 315 313 306 319 307 300 322 281 267 293 282 289 299 258 251 233 231 232 230 228 229 232 230 228 236 233 227 237 244 245 231
429 444 441 435 373 340 327 312 306 298 320 335 326 322 315 311 309 308 306 318 288 269 280 281 298 278 261 254 249 245 237 233 231 232 232 230 240 235 222 231 225 245 242

GFSGL_2pvu_pres_135.txt.gz
Presure
351 123 287 214 164 189 177 200 180 164 229 204 178 193 193 234 182 211 188 194 186 185 167 185 185 186 177 177 174 190 192 173 177 197 190 189 196 197 197 176 211 207 218
313 276 202 224 215 185 195 162 176 173 166 177 197 183 198 186 205 222 194 218 191 187 190 190 185 181 188 180 168 187 182 200 187 197 180 193 178 175 183 180 221 207 220
303 252 229 190 211 212 189 206 169 168 195 183 178 187 218 195 205 198 201 195 195 201 185 189 192 181 183 181 186 187 188 183 187 187 177 175 175 201 177 197 194 199 199
272 269 232 199 199 198 207 191 188 193 209 169 182 187 197 181 195 212 185 235 220 201 206 189 192 181 188 188 182 191 189 180 176 189 187 187 190 176 189 191 204 203 210
246 264 207 226 232 226 252 205 209 218 205 230 188 205 188 202 201 214 204 213 229 219 202 186 200 192 190 192 187 180 178 184 182 184 185 191 187 206 210 204 194 212 198
252 247 247 218 200 216 201 242 221 194 205 208 204 220 237 180 187 245 172 206 219 234 232 220 211 213 192 192 195 110 195 193 194 199 183 188 180 210 210 199 215 206 211
245 248 257 227 228 224 227 208 199 204 185 208 213 219 178 239 227 229 232 202 219 244 240 220 234 220 210 188 186 196 190 188 191 189 220 208 193 197 211 213 216 201 209
227 244 249 242 234 229 260 255 236 262 259 222 237 220 231 235 208 250 267 218 240 226 240 216 249 241 233 213 212 208 186 192 196 193 183 195 183 213 204 209 203 207 215
219 230 240 222 229 237 235 229 220 223 231 225 219 221 213 248 204 244 239 228 232 245 217 232 221 223 219 230 201 207 226 218 204 204 202 196 210 206 216 221 211 220 220
229 228 238 208 255 235 229 188 236 240 248 236 247 200 238 240 238 249 242 237 235 234 245 249 249 257 236 244 258 230 223 220 221 217 222 224 217 219 215 235 225 220 214
234 213 220 234 239 246 240 216 194 234 237 242 236 229 227 241 238 240 220 221 234 250 257 244 240 261 263 269 291 302 265 253 249 245 232 243 221 225 214 224 218 212 220
222 227 234 226 229 227 227 221 227 217 223 216 222 198 235 226 241 231 249 252 238 268 270 266 270 252 271 289 309 295 301 275 262 256 243 250 217 224 221 226 210 216 209
244 239 225 210 229 232 244 221 224 224 223 225 227 235 236 234 229 233 232 254 237 277 264 257 260 255 253 260 283 292 268 269 270 252 236 212 211 200 200 214 206 203 202
231 234 233 237 225 224 224 222 225 235 233 235 228 232 227 238 246 249 234 242 271 261 254 251 249 249 244 253 267 260 257 260 246 240 233 220 215 213 213 205 205 209 209
237 230 231 234 234 250 247 220 233 244 240 238 245 241 261 239 241 262 263 253 244 264 248 249 244 246 245 251 262 257 257 249 242 236 229 232 214 212 209 213 203 222 218
244 249 248 247 246 243 251 255 241 247 256 253 257 251 250 255 250 263 250 236 229 238 247 241 239 228 239 249 245 258 238 241 239 220 221 216 212 207 209 205 221 213 206
268 272 262 251 216 259 263 269 263 261 255 268 265 242 258 248 247 251 245 242 270 266 244 256 248 239 246 238 243 240 248 238 225 241 217 217 208 213 219 204 207 208 218
250 263 266 268 256 234 265 248 245 249 246 249 246 239 245 256 268 261 250 265 254 268 262 256 273 255 248 229 241 240 247 239 226 219 219 222 211 215 208 213 212 210 216
275 270 254 254 254 260 263 252 267 261 260 261 267 266 268 270 274 270 272 291 283 272 254 337 313 279 293 237 248 238 234 250 243 234 212 215 215 215 214 223 229 219 222
351 347 339 314 316 324 294 281 286 287 280 298 313 307 273 306 310 308 293 336 320 362 371 283 252 328 301 261 245 225 237 236 234 229 226 224 223 229 224 221 219 220 215
361 336 335 343 344 334 328 324 326 327 316 367 353 346 350 347 352 351 348 345 346 350 351 334 317 317 320 263 251 242 231 236 229 234 213 223 224 226 225 223 218 225 227
436 417 355 353 358 347 329 337 312 319 304 358 349 341 337 333 333 328 327 324 324 335 332 318 306 309 295 258 266 251 241 230 224 227 225 221 217 218 220 223 223 226 227
437 427 429 418 356 343 344 328 332 307 302 315 349 341 332 325 325 331 317 311 317 316 320 301 300 300 310 275 277 261 248 241 237 219 220 227 224 224 224 219 224 227 229
435 450 445 430 452 419 401 345 330 332 315 307 311 354 342 332 324 330 312 316 310 308 312 318 290 268 301 280 270 268 261 253 246 235 232 234 232 227 225 231 234 220 220
348 402 425 442 443 437 446 454 420 354 336 327 308 301 321 344 331 327 323 317 324 309 307 306 305 275 275 289 297 265 257 246 243 245 244 234 224 229 228 229 227 225 227
312 330 355 396 422 436 435 432 441 447 433 378 344 327 317 302 336 340 347 321 320 327 313 309 316 291 281 299 271 309 290 265 254 244 242 234 230 235 236 235 228 228 228

GFSGL_2pvu_pres_138.txt.gz
Presure
389 387 494 368 393 288 207 207 166 142 189 142 181 224 182 178 112 193 165 204 206 217 192 203 177 203 187 180 181 181 182 177 171 154 188 183 192 171 170 185 202 192 172
391 387 456 331 348 220 186 182 204 173 192 144 162 191 159 163 172 179 182 198 205 209 193 221 210 177 197 181 180 178 186 185 157 173 182 194 172 211 199 201 164 183 176
346 431 341 593 212 209 182 166 186 191 176 166 183 170 176 152 183 166 185 196 191 201 196 213 186 192 179 196 170 178 159 177 188 208 193 192 189 185 187 183 171 180 180
309 315 299 236 213 191 205 199 172 175 169 161 175 181 169 175 174 203 187 181 181 188 196 189 188 206 194 216 196 185 186 185 188 184 180 189 188 195 176 186 179 192 194
293 329 303 222 201 216 240 201 183 188 173 162 185 176 171 187 193 191 202 188 187 193 173 170 182 206 224 201 184 189 182 187 187 187 189 206 192 194 188 188 190 188 188
283 272 277 223 218 220 199 206 194 196 167 166 175 176 201 190 184 177 179 203 207 173 175 185 195 201 206 203 201 193 233 193 192 167 201 198 195 200 203 193 191 176 195
248 225 242 202 227 188 204 192 214 181 192 183 169 197 191 180 196 202 190 198 209 199 198 224 171 217 196 197 189 216 212 231 211 192 191 187 187 193 180 184 187 187 193
248 241 225 244 204 209 198 211 202 192 189 212 194 187 196 195 195 196 192 190 187 214 206 219 198 211 192 210 245 209 210 245 243 235 214 209 192 195 193 182 201 189 179
204 260 234 205 230 215 212 212 203 187 190 207 189 205 207 199 194 192 189 181 214 228 218 175 202 229 258 224 238 217 206 225 222 234 232 247 241 223 211 209 209 204 211
248 246 244 271 182 230 201 231 207 196 217 211 188 216 192 201 213 214 212 208 218 179 205 225 239 267 232 259 232 258 209 234 220 238 210 216 235 233 189 217 241 192 194
249 237 245 237 261 262 221 219 224 205 214 221 225 193 204 246 190 237 258 247 169 216 222 207 197 233 260 255 263 255 261 223 275 320 296 250 249 241 242 248 226 223 223
249 263 246 237 240 241 251 240 224 230 225 226 235 201 243 225 223 250 251 233 220 246 221 257 258 239 242 225 216 235 232 262 286 239 259 275 290 288 279 272 261 240 229
239 236 255 248 241 241 228 246 254 256 267 229 232 234 255 250 257 258 245 240 243 248 250 250 219 237 229 232 234 237 243 274 265 260 274 281 304 290 295 275 269 247 238
249 243 215 239 237 252 250 246 216 240 234 239 225 231 239 240 229 226 237 236 239 214 227 225 239 223 236 245 253 243 266 261 258 257 260 273 298 277 275 268 247 239 227
238 246 248 243 233 236 240 249 254 248 231 239 246 247 251 255 222 240 229 246 232 229 228 228 218 231 238 235 245 257 257 253 248 246 250 260 263 250 257 262 244 224 221
263 235 219 231 241 245 249 237 239 234 242 242 234 228 228 234 232 235 236 229 232 240 229 230 235 260 250 245 255 250 255 250 245 241 240 258 252 256 253 236 229 224 217
245 283 251 257 228 250 246 250 238 248 245 246 251 253 239 237 219 211 236 242 245 251 253 256 255 246 274 257 245 233 231 234 248 243 241 252 246 245 249 228 227 218 212
272 258 253 262 268 259 259 244 249 257 257 259 250 258 261 265 260 243 253 241 238 257 254 258 266 255 254 251 249 252 234 231 240 260 241 247 241 242 235 226 223 216 218
351 319 281 274 267 267 263 275 268 268 261 261 256 254 251 245 242 242 254 252 247 252 250 233 256 269 251 244 262 270 257 267 257 259 250 245 252 236 230 227 224 215 210
491 483 483 455 375 355 315 291 287 281 264 263 260 252 268 260 275 263 251 252 271 270 271 273 273 292 260 302 288 302 258 268 253 287 267 241 240 253 237 234 218 227 219
395 481 491 473 469 470 460 392 365 357 357 357 301 305 282 281 281 280 287 291 293 329 349 292 380 340 365 357 362 375 389 391 373 326 258 252 245 236 245 246 223 224 228
341 342 365 433 474 474 454 449 443 423 373 361 355 346 350 348 345 338 337 322 335 322 339 362 354 347 347 346 344 343 356 342 370 302 302 267 248 243 236 236 244 231 223
308 334 350 331 351 402 455 471 458 445 430 414 368 354 355 350 341 336 334 325 320 320 357 353 341 335 329 327 329 329 334 329 366 304 281 282 252 243 241 240 230 235 232
281 278 306 360 346 327 347 377 444 463 457 452 456 419 366 346 346 329 337 323 315 309 349 351 338 326 321 315 326 314 318 309 343 287 290 280 254 245 244 241 241 238 234
271 275 288 286 368 353 320 329 352 367 439 459 452 447 454 423 375 345 333 333 329 309 356 349 340 330 321 312 309 319 310 303 342 297 276 285 271 247 246 242 234 237 233
264 263 273 291 370 359 344 316 320 343 360 373 429 447 457 444 450 440 387 343 331 330 307 347 350 342 328 317 312 313 307 297 294 307 293 272 273 262 255 248 233 236 236

GFSGL_2pvu_pres_141.txt.gz
Presure
260 345 337 280 320 596 508 385 159 203 214 167 183 132 165 173 135 183 163 166 154 187 184 188 186 231 166 183 181 195 194 184 186 197 193 189 189 189 181 173 183 189 195
256 324 329 374 400 553 404 263 239 215 174 172 189 132 148 160 135 138 135 183 165 187 134 194 199 150 198 230 182 215 214 191 186 166 183 170 184 190 170 167 193 186 182
244 315 382 383 468 473 304 244 224 216 197 175 177 164 174 136 152 154 150 143 164 167 150 175 180 209 206 207 211 226 187 188 184 196 175 170 156 171 179 193 158 181 180
302 291 301 306 358 452 320 208 227 222 198 184 181 169 163 156 173 163 163 193 175 177 160 185 155 165 185 188 171 220 207 192 192 185 181 183 178 183 169 186 183 179 187
277 287 292 293 313 353 226 228 215 200 184 185 169 181 183 176 170 157 179 162 181 169 166 177 194 168 163 170 169 216 206 208 184 200 184 187 190 168 192 179 182 185 191
275 290 285 297 237 243 226 211 201 194 195 169 184 170 188 174 182 188 186 175 165 174 183 176 187 181 221 182 189 191 182 188 196 191 188 204 196 190 211 193 195 193 185
256 288 310 280 236 224 213 245 212 199 180 189 187 181 162 182 178 193 186 178 173 181 180 183 215 216 181 205 210 160 206 178 170 192 182 167 190 197 191 196 202 204 223
206 251 247 242 214 211 198 199 193 191 199 201 201 168 191 169 168 189 197 196 185 184 183 208 199 193 201 195 201 190 183 189 194 182 165 227 206 204 194 203 239 193 215
226 245 243 216 236 226 211 211 223 200 223 190 211 193 201 180 187 193 182 198 201 196 204 189 199 188 189 176 184 181 201 204 168 194 227 202 208 216 254 206 251 205 216
229 237 245 224 226 237 232 206 197 208 179 206 192 186 194 194 189 193 194 203 193 187 202 205 199 211 208 193 189 205 173 161 186 211 213 201 228 277 278 246 252 220 263
255 238 237 222 222 234 208 212 207 219 214 209 210 206 191 210 186 194 192 215 213 189 188 194 213 212 210 211 217 191 211 198 198 195 202 232 255 253 254 245 241 247 238
255 252 217 237 254 242 227 217 210 216 224 204 238 212 213 199 218 196 196 187 181 208 202 212 198 202 151 206 206 200 198 181 256 165 234 268 218 249 252 236 243 250 294
254 268 251 249 245 220 228 226 227 224 241 198 218 193 193 220 190 195 197 215 205 214 194 211 223 209 199 232 207 200 202 213 274 271 280 260 238 254 236 235 281 274 270
235 274 245 266 244 246 235 226 225 233 241 218 200 227 224 223 237 217 207 201 194 198 214 215 217 220 207 198 233 213 214 237 263 261 240 232 232 240 256 249 273 266 270
259 237 263 230 254 264 265 252 250 232 257 230 214 231 224 211 227 216 221 226 216 224 207 208 205 210 223 224 216 216 259 263 253 245 233 236 242 273 264 266 264 255 254
268 264 263 255 238 266 255 261 259 268 280 256 221 232 238 223 212 233 217 211 215 241 245 217 218 226 252 229 242 259 260 232 240 220 225 230 229 244 265 260 254 250 252
359 277 273 258 275 259 260 238 263 279 286 266 263 265 271 239 264 230 238 236 229 232 235 234 241 250 253 270 274 270 260 228 239 239 235 235 248 252 256 250 261 251 246
444 512 470 320 263 282 247 251 263 256 272 268 267 265 263 271 273 270 263 278 276 277 274 271 264 257 263 252 233 243 229 253 228 243 249 251 280 276 252 243 235 256 246
367 384 405 443 510 525 406 273 285 277 266 254 257 252 248 251 249 251 255 266 248 248 264 263 259 250 261 261 252 240 245 253 249 254 242 274 259 277 257 250 254 235 247
317 326 340 359 375 394 420 493 517 466 276 276 294 272 259 249 251 258 250 257 256 261 257 251 265 247 247 244 247 244 242 242 244 279 268 274 256 266 279 247 240 265 255
288 293 299 312 320 397 392 366 387 408 482 502 488 479 287 294 295 277 270 262 260 261 263 268 264 257 257 254 252 265 268 266 301 284 297 296 448 395 308 263 264 266 257
275 275 275 276 288 293 306 371 387 355 369 389 409 483 487 483 459 448 344 331 309 308 295 291 286 284 280 278 277 278 280 287 290 325 355 384 393 400 398 361 319 288 279
269 270 269 263 267 266 281 290 395 382 359 341 354 372 388 409 486 473 467 436 415 385 370 369 365 359 360 354 346 351 363 338 349 350 363 358 357 374 356 330 394 261 264
265 267 268 268 268 276 281 288 283 372 365 349 331 331 342 366 381 407 481 464 465 430 399 371 359 361 357 347 343 342 335 331 352 355 342 340 335 351 331 347 369 344 263
258 264 266 267 269 275 277 278 285 359 349 343 332 318 321 345 376 382 383 455 475 451 456 429 383 355 354 353 339 339 335 323 338 341 335 327 319 340 329 333 330 297 280
258 262 264 268 266 269 275 273 281 357 349 338 332 313 314 346 375 377 378 389 459 460 447 448 449 412 366 348 341 343 334 320 334 343 328 323 317 332 318 321 318 281 283